TimePST,TemperatureF,Dew PointF,Humidity,Sea Level PressureIn,VisibilityMPH,Wind Direction,Wind SpeedMPH,Gust SpeedMPH,PrecipitationIn,Events,Conditions,WindDirDegrees,DateUTC
12:52 AM,25.0,23.0,92,30.39,-9999.0,SSW,5.8,-,N/A,,Unknown,200,2013-02-13 08:52:00
1:52 AM,28.9,25.0,85,30.36,-9999.0,South,8.1,-,N/A,,Unknown,170,2013-02-13 09:52:00
2:52 AM,28.0,24.1,85,30.36,-9999.0,SSW,3.5,-,N/A,,Unknown,210,2013-02-13 10:52:00
3:52 AM,24.1,21.0,88,30.37,-9999.0,SSW,4.6,-,N/A,,Unknown,200,2013-02-13 11:52:00
4:52 AM,30.0,25.0,82,30.36,-9999.0,SSW,4.6,-,N/A,,Unknown,210,2013-02-13 12:52:00
5:52 AM,27.0,24.1,89,30.38,-9999.0,South,3.5,-,N/A,,Unknown,190,2013-02-13 13:52:00
6:52 AM,30.9,25.0,79,30.38,-9999.0,SW,4.6,-,N/A,,Unknown,220,2013-02-13 14:52:00
7:52 AM,34.0,27.0,75,30.40,-9999.0,Calm,Calm,-,N/A,,Unknown,0,2013-02-13 15:52:00
8:52 AM,37.0,28.0,70,30.38,-9999.0,SSE,5.8,-,N/A,,Unknown,150,2013-02-13 16:52:00
9:52 AM,44.1,28.0,53,30.36,-9999.0,SSW,12.7,-,N/A,,Unknown,210,2013-02-13 17:52:00
10:52 AM,48.0,28.0,46,30.34,-9999.0,South,15.0,-,N/A,,Unknown,190,2013-02-13 18:52:00
11:52 AM,50.0,28.0,43,30.32,-9999.0,SW,8.1,-,N/A,,Unknown,230,2013-02-13 19:52:00
12:52 PM,52.0,27.0,38,30.31,-9999.0,WSW,11.5,-,N/A,,Unknown,240,2013-02-13 20:52:00
1:52 PM,54.0,25.0,33,30.28,-9999.0,Variable,6.9,-,N/A,,Unknown,0,2013-02-13 21:52:00
2:52 PM,53.1,19.0,26,30.28,-9999.0,NW,5.8,-,N/A,,Unknown,320,2013-02-13 22:52:00
3:52 PM,52.0,21.0,30,30.30,-9999.0,WNW,11.5,-,N/A,,Unknown,300,2013-02-13 23:52:00
4:52 PM,48.0,24.1,39,30.30,-9999.0,NW,12.7,-,N/A,,Unknown,320,2013-02-14 00:52:00
5:52 PM,45.0,23.0,42,30.32,-9999.0,NNW,8.1,-,N/A,,Unknown,330,2013-02-14 01:52:00
6:52 PM,44.1,24.1,45,30.32,-9999.0,Variable,3.5,-,N/A,,Unknown,0,2013-02-14 02:52:00
7:52 PM,42.1,21.9,45,30.34,-9999.0,East,3.5,-,N/A,,Unknown,80,2013-02-14 03:52:00
8:52 PM,39.9,24.1,53,30.34,-9999.0,NNW,4.6,-,N/A,,Unknown,340,2013-02-14 04:52:00
9:52 PM,39.9,25.0,55,30.34,-9999.0,Calm,Calm,-,N/A,,Unknown,0,2013-02-14 05:52:00
10:52 PM,41.0,25.0,53,30.34,-9999.0,North,6.9,-,N/A,,Unknown,350,2013-02-14 06:52:00
11:52 PM,39.0,26.1,60,30.35,-9999.0,Calm,Calm,-,N/A,,Unknown,0,2013-02-14 07:52:00